Location: De Har
(53.3413°N, 6.6858°E)
Time: 16:39:31
(UTC+00:00)

Cosmos 1953 Rocket - Pass Details

Date: 22 April 2026
Orbit: 598 x 626 km, 82.5° (Epoch: 9 May)

Event Time Altitude Azimuth Distance (km) Brightness Sun altitude
Rises 00:15:01 0° 351° (N) 2,926 8.2 -23.9°
Reaches altitude 10° 00:17:18 10° 355° (N) 2,012 7.2 -23.8°
Maximum altitude 00:21:42 58° 75° (ENE) 729 3.9 -23.7°
Enters shadow 00:22:19 53° 111° (ESE) 773 3.9 -23.6°
